Regional Weather Roundup
Issued by NWS Cleveland, OH

Home | Current Version | Previous Version | Text Only | Print | Product List | Glossary Off
Versions: 1 2 3 4 5 6 7 8 9 10 11 12 13 14 15 16 17 18 19 20 21 22 23 24 25 26 27 28 29 30 31 32 33 34 35 36 37 38 39 40 41 42 43 44 45 46 47 48 49 50

144
ASUS41 KCLE 262212
RWRCLE
OHIO REGIONAL WEATHER ROUNDUP
NATIONAL WEATHER SERVICE WILMINGTON, OH
600 PM EDT FRI MAY 26 2017

NOTE: "FAIR" INDICATES FEW OR NO CLOUDS BELOW 12,000 FEET WITH NO
SIGNIFICANT WEATHER AND/OR OBSTRUCTIONS TO VISIBILITY.

OHZ001>008-015>018-024>027-034-035-043-044-262300-
   NORTHWEST OHIO

CITY           SKY/WX    TMP DP  RH WIND       PRES   REMARKS
DEFIANCE       FAIR      69  54  58 SW5       29.87R
FINDLAY        PTSUNNY   71  53  52 CALM      29.85S
TOLEDO EXPRESS LGT RAIN  68  56  65 W5        29.85S
TOLEDO EXEC    PTSUNNY   71  54  54 SW7       29.86S
LIMA           LGT RAIN  68  58  70 S5        29.88R
$$

OHZ009>014-019>023-028>033-038-089-262300-
   NORTHEAST OHIO

CITY           SKY/WX    TMP DP  RH WIND       PRES   REMARKS
CLE-HOPKINS    PTSUNNY   70  52  52 NW13      29.90R
CLE-LAKEFRONT  CLOUDY    63  54  72 W7        29.88S
CUY CO. ARPT   PTSUNNY   64  52  63 W12       29.90R
LORAIN-ELYRIA  FAIR      66  51  58 NW3       29.89S
ASHTABULA      CLOUDY    61  53  75 W14       29.89R
AKRON-CANTON   PTSUNNY   66  55  67 NW7       29.90R
WOOSTER        FAIR      67  54  63 NW10      29.90R
MANSFIELD      FAIR      67  55  65 W7        29.89S
YOUNGSTOWN     CLOUDY    64  50  60 W13       29.88R
$$

OHZ042-051>053-060>062-070>072-077>081-262300-
  SOUTHWEST OHIO

CITY           SKY/WX    TMP DP  RH WIND       PRES   REMARKS
CINC-COVINGTON FAIR      77  60  55 S10       29.87S
CINC-LUNKEN    FAIR      78  61  55 S10       29.87R
HAMILTON       FAIR      79  59  50 SW7       29.87R
DAYTON         FAIR      76  55  48 SW13      29.88R
WRIGHT-PAT AFB MOSUNNY   77  55  47 W6        29.86S
DAYTON GENERAL FAIR      77  54  44 SW13      29.86S
WILMINGTON     FAIR      75  59  57 S5        29.88R
$$

OHZ036-037-039>041-045>050-054>059-063>069-073>076-082>088-262300-
  CENTRAL AND SOUTHEAST OHIO

CITY           SKY/WX    TMP DP  RH WIND       PRES   REMARKS
COLUMBUS       CLOUDY    74  57  55 W9        29.88R
OSU AIRPORT    FAIR      73  56  54 W8        29.88R
BOLTON FIELD   SUNNY     73  57  56 SW3       29.89S
RICKENBACK AFB FAIR      74  56  53 W8        29.88R
NEWARK         FAIR      72  55  55 W6        29.87S
MARION         CLOUDY    71  53  52 W6        29.88S
LANCASTER      FAIR      76  57  51 W5        29.89S
ZANESVILLE     FAIR      73  53  49 W9        29.89R
NEW PHILLY     FAIR      70  56  61 NW8       29.89R
$$




USA.gov is the U.S. government's official web portal to all federal, state and local government web resources and services.